Voltar ao catálogo

FREGAT DEB

LostHEO
NORAD 46023·DEBRIS·🇷🇺 Russia

Lançado Jul 18, 2011 de Baikonur Cosmodrome

Loading…

Próximas Passagens (próximas 24 horas)

TLE

ObsoletoSource: Space-Track

Época: Aug 30, 2020, 07:36 UTC

1 46023U 11037JA  20243.31679810  .00166920  00000-0  10262+0 0  9997
2 46023  51.3757 254.6196 2826932 126.3564 263.2547  9.24540295  3526

Acompanhe FREGAT DEB em tempo real com AllMySat

Download on the App Store